Location: Bílinka
(49.3579°N, 14.3767°E)
Time: 22:11:59
(UTC+00:00)

Cosmos 2369 - Pass Details

Date: 28 January 2023
Orbit: 837 x 857 km, 71.0° (Epoch: 29 March)

Event Time Altitude Azimuth Distance (km) Brightness Sun altitude
Rises 16:38:13 0° 186° (S) 3,376 7.2 -7.8°
Reaches altitude 10° 16:40:44 10° 180° (S) 2,448 6.4 -8.2°
Maximum altitude 16:46:02 45° 109° (ESE) 1,141 4.1 -9.0°
Drops below altitude 10° 16:51:23 10° 39° (NE) 2,473 5.6 -9.9°
Enters shadow 16:52:30 - 36° (NE) 2,881 6.0 -10.0°
